Regional Weather Roundup
Issued by NWS

Home | Current Version | Previous Version | Graphics & Text | Print | Product List | Glossary On
Versions: 1 2 3 4 5 6 7 8 9 10 11 12 13 14 15 16 17 18 19 20 21 22 23 24 25 26 27 28 29 30 31 32 33 34 35 36 37 38 39 40 41 42 43 44 45 46 47 48 49
000
ASUS43 KMPX 202210
RWRMN
WEATHER ROUNDUP FOR MINNESOTA
NATIONAL WEATHER SERVICE TWIN CITIES/CHANHASSEN MN
400 PM CST MON FEB 20 2017


NOTE: "FAIR" INDICATES FEW OR NO CLOUDS BELOW 12,000 FEET WITH NO
SIGNIFICANT WEATHER AND/OR OBSTRUCTIONS TO VISIBILITY. N/A MEANS
CURRENT SKY AND/OR WEATHER CONDITIONS ARE NOT AVAILABLE.

MNZ060>063-068>070-202300-
   Twin Cities Metro

CITY           SKY/WX    TMP DP  RH WIND       PRES   REMARKS
TWIN CITIES    LGT RAIN  53  51  93 S9        29.69R FOG
ST PAUL        RAIN      50  50 100 S10       29.69R FOG
CRYSTAL        LGT RAIN  67  49  52 S12       29.67R
BLAINE         LGT RAIN  54  54 100 S14       29.66R
LAKEVILLE      LGT RAIN  52  52 100 S12       29.69R
EDEN PRAIRIE   LGT RAIN  52  51  97 S8        29.68R FOG
SOUTH ST PAUL  LGT RAIN  51  51  99 S13G18    29.68R
LAKE ELMO      RAIN      52  50  93 S12       29.70R
$$
MNZ001>005-007-008-013>017-022>024-027-028-202300-
   Northwest Minnesota

CITY           SKY/WX    TMP DP  RH WIND       PRES   REMARKS
BEMIDJI        RAIN      42  42 100 S5        29.56S VSB<1/4
HALLOCK        DRIZZLE   36  34  93 NW7       29.61R
ROSEAU         RAIN      36  32  87 W8        29.56R
WARROAD        RAIN      41  37  87 SW6       29.55R VSB<1/4
THIEF RVR FALL LGT RAIN  35  34  96 W12       29.63R WCI  27
CROOKSTON      MIX PCPN  36  34  93 NW9       29.65R
FOSSTON        DRIZZLE   37  37 100 W13       29.59S
DETROIT LAKES  DRIZZLE   39  39 100 NW15      29.61R
MOORHEAD       LGT RAIN  37  37 100 NW14      29.67R
PARK RAPIDS    LGT RAIN  44  41  89 S6        29.57R VSB<1/4
MAHNOMEN       RAIN      37  37 100 NW8       29.60R
$$
MNZ006-009>011-018-025>026-202300-
   North Central Minnesota

CITY           SKY/WX    TMP DP  RH WIND       PRES   REMARKS
BAUDETTE       LGT RAIN  42  41  96 S8        29.53F FOG
FLAG ISLAND    LGT RAIN  36  34  93 SE6       29.53F VSB<1/4
INTL FALLS     LGT RAIN  44  42  93 VRB3      29.57S FOG
WASKISH        DRIZZLE   45  45 100 S7        29.56S
LONGVILLE      RAIN      45  45 100 S3        29.61R
GRAND RAPIDS   LGT RAIN  43  42  97 S10       29.64R FOG
CRANE LAKE     LGT RAIN  43  43 100 CALM      29.62F
ORR            RAIN      43  39  87 SE10      29.56F
COOK           RAIN      43  43 100 SE7       29.61F
WALKER         FOG       43  43  99 CALM      29.58S VSB<1/4
$$
MNZ012-019>021-037-202300-
   Northeast Minnesota

CITY           SKY/WX    TMP DP  RH WIND       PRES   REMARKS
DULUTH         RAIN      41  40  96 SE15      29.65F FOG
ELY            LGT RAIN  39  39 100 SE12      29.63F
HIBBING        LGT RAIN  39  39 100 SE7       29.62F FOG
EVELETH        RAIN      42  41  95 SE8       29.64S
DULUTH HARBOR  MIX PCPN  36  34  93 CALM      29.69S
TWO HARBORS    RAIN      43  37  81 E6        29.65F
SILVER BAY     RAIN      37  37 100 NE14G20   29.66F
GRAND MARAIS     N/A     41  37  86 NE14      29.75F
G MARAIS ARPRT RAIN      37  34  87 E12G17    29.73F
$$
MNZ029>031-032-039>041-046>048-054>057-064-202300-
   West Central Minnesota

CITY           SKY/WX    TMP DP  RH WIND       PRES   REMARKS
FERGUS FALLS   CLOUDY    39  39 100 NW18      29.66R FOG
WHEATON        DRIZZLE   41  37  87 W18G25    29.68R
MORRIS         CLOUDY    45  43  93 NW18G25   29.61R FOG
ALEXANDRIA     FOG       50  50 100 S10       29.59F VSB<1/4
ELBOW LAKE     CLOUDY    40  40 100 NW16      29.62R FOG
WADENA         RAIN      46  45  93 S6        29.58R VSB 1/4
GLENWOOD       DRZL/FOG  52  52 100 S9        29.60F VSB<1/4
APPLETON       CLOUDY    55  52  88 W15G22    29.62R FOG
BENSON         CLOUDY    55  50  82 SW8       29.61F HAZE
ORTONVILLE     CLOUDY    43  39  87 NW15G23   29.67R
WILLMAR        CLOUDY    54  54 100 CALM      29.63F FOG
$$
MNZ033>034-036-042>043-049>051-058-059-202300-
   Central Minnesota

CITY           SKY/WX    TMP DP  RH WIND       PRES   REMARKS
ST CLOUD       LGT RAIN  49  49 100 S6        29.64S FOG
SAUK CENTRE    FOG       48  48 100 S5        29.60F VSB 1/4
PAYNESVILLE    DRZL/FOG  50  50 100 S8        29.62F VSB 1/2
AITKIN         MIX PCPN  48  45  87 SE10      29.61S
PINE RIVER     RAIN      45  45 100 SE12      29.63S VSB 1/4
BRAINERD       LGT RAIN  47  46  97 S6        29.62F FOG
STAPLES        LGT RAIN  46  46 100 S10       29.59F
LONG PRAIRIE   LGT RAIN  46  45  93 SE6       29.60F VSB 1/4
LITTLE FALLS   LGT RAIN  46  45  93 SE7       29.62F
LITCHFIELD     DRIZZLE   54  54 100 CALM      29.63F
BUFFALO        LGT RAIN  51  49  94 S6        29.67S
MAPLE LAKE     LGT RAIN  51  50  99 S5        29.67R
HUTCHINSON     LGT RAIN  53  53 100 SE3       29.65F
$$
MNZ037-044-045-052-053-202300-
   East Central Minnesota

CITY           SKY/WX    TMP DP  RH WIND       PRES   REMARKS
PRINCETON      LGT RAIN  52  50  93 S6        29.66S
MORA           RAIN      41  39  93 S3        29.67S
CAMBRIDGE      RAIN      52  46  82 S6        29.65R
RUSH CITY      LGT RAIN  48  46  93 SW7       29.66R
MOOSE LAKE     RAIN      37  36  93 E3        29.64R
HINCKLEY       RAIN      46  46 100 S5        29.65R
CLOQUET        RAIN      37  36  93 SE3       29.66R
MCGREGOR       CLOUDY    43  43 100 SE5       29.64R
$$
MNZ071>073-080-081-089-090-097-098-202300-
   Southwest Minnesota

CITY           SKY/WX    TMP DP  RH WIND       PRES   REMARKS
MONTEVIDEO     CLOUDY    54  54 100 SW8       29.63R FOG
GRANITE FALLS  CLOUDY    55  55  99 S7        29.64S FOG
CANBY          CLOUDY    51  48  87 NW17G29   29.66R
MARSHALL       CLOUDY    54  50  87 W21       29.65R
REDWOOD FALLS  CLOUDY    54  52  93 SW8       29.64R FOG
OLIVIA         DRIZZLE   54  52  94 S8        29.64R
PIPESTONE      CLOUDY    48  43  81 NW16G26   29.70R
WINDOM         CLOUDY    55  54  94 S13       29.66F FOG
WORTHINGTON    CLOUDY    50  47  89 SW14      29.68R
JACKSON        PTSUNNY   54  54 100 S12       29.68F FOG
TRACY          CLOUDY    55  51  86 SW10G18   29.64R
SLAYTON        CLOUDY    51  49  92 SW15      29.67R
$$
MNZ065>067-074>077-082>085-091>093-202300-
   South Central Minnesota

CITY           SKY/WX    TMP DP  RH WIND       PRES   REMARKS
MANKATO        LGT RAIN  53  52  96 S10       29.69R FOG
NEW ULM        PTSUNNY   54  54 100 S12       29.67R FOG
ST JAMES       CLOUDY    54  54 100 S10       29.68S FOG
FAIRMONT       LGT RAIN  55  54  96 S10       29.70S FOG
GLENCOE        LGT RAIN  54  54 100 S7        29.66R
FARIBAULT      LGT RAIN  52  52 100 S6        29.71R
OWATONNA       LGT RAIN  54  50  87 S14G20    29.71R
WASECA         RAIN      52  50  93 S15       29.72R
ALBERT LEA     DRIZZLE   54  54 100 SW6       29.72S
$$
MNZ078>079-086>088-094>096-202300-
   Southeast Minnesota

CITY           SKY/WX    TMP DP  RH WIND       PRES   REMARKS
ROCHESTER      LGT RAIN  50  50 100 S16       29.73S FOG
RED WING       LGT RAIN  52  50  93 S9        29.70S
DODGE CENTER   LGT RAIN  52  50  93 S15       29.72R
WINONA         LGT RAIN  54  52  94 S7        29.75F
AUSTIN         RAIN      54  52  94 S13       29.73R
PRESTON        LGT RAIN  52  50  93 S14G23    29.75R
$$
ABBREVIATIONS USED IN REMARKS
   TC - TEMPERATURES IN CELSIUS
  WCI - WIND CHILL INDEX
   HX - HEAT INDEX
  VSB - VISIBILITY
$$




USA.gov is the U.S. government's official web portal to all federal, state and local government web resources and services.